User: anonymous   Login
Location: St Andrew
(49.4460°N, 2.5750°W)
Time: 23:20:09
(UTC+01:00)
Language:

Iridium 66 - Orbit

View from above orbital plane
View from above orbital plane
View from above satellite
View from above satellite

Ground track
Ground track

The orbit data is extracted from the following two-line orbital elements,

1 25289U 98021E   16270.24663273  .00000010  00000-0 -33601-5 0  9995
2 25289  86.3982 334.1169 0002267  97.9450 322.1762 14.34224846967184
Epoch (UTC): 26 September 2016 05:55:09
Eccentricity: 0.0002267
inclination: 86.3982°
perigee height: 776 km
apogee height: 779 km
right ascension of ascending node: 334.1169°
argument of perigee: 97.9450°
revolutions per day: 14.34224846
mean anomaly at epoch: 322.1762°
orbit number at epoch: 96718

The dashed part of the orbit path shows where the satellite is in the earth's shadow,  

DLR